Weather History for Orlando International, FL

Change the Weather History Date:

Friday, May 30, 2014

  Actual Average Record
Temperature  
Mean Temperature 81 °F 80 °F  
Max Temperature 89 °F 90 °F 100 °F (1945)
Min Temperature 72 °F 70 °F 59 °F (1910)
Degree Days  
Heating Degree Days 0 0  
Month to date heating degree days 0 0  
Since 1 July heating degree days 406 570  
Cooling Degree Days 16 15  
Month to date cooling degree days 398 366  
Year to date cooling degree days 920 787  
Growing Degree Days 30 (Base 50)    
Moisture  
Dew Point 69 °F    
Average Humidity 73    
Maximum Humidity 93    
Minimum Humidity 53    
Precipitation  
Precipitation T in 0.19 in 2.63 in (1979)
Month to date precipitation 3.56 3.27  
Year to date precipitation 17.32 14.45  
Sea Level Pressure  
Sea Level Pressure 30.02 in    
Wind  
Wind Speed 6 mph (ESE)    
Max Wind Speed 22 mph    
Max Gust Speed 26 mph    
Visibility 10 miles    
Events Rain , Thunderstorm    
T = Trace of Precipitation, MM = Missing Value Source: NWS Daily Summary

Daily Weather History Graph

Daily Weather History Graph

Search for Another Location

Airport:

Trip Planner

Search our weather history database for the weather conditions in past years. The results will help you decide how hot, cold, wet, or windy it might be!

Date:

Astronomy

May. 30, 2014 Rise Set
Actual Time 6:28 AM EDT 8:17 PM EDT
Civil Twilight 6:02 AM EDT 8:43 PM EDT
Nautical Twilight 5:30 AM EDT 9:15 PM EDT
Astronomical Twilight 4:56 AM EDT 9:49 PM EDT
Moon 8:07 AM EDT (5/30) 9:58 PM EDT (5/30)
Length of Visible Light 14h 41m
Length of Day
13h 48m
Waxing Crescent, 4% of the Moon is Illuminated
May 30
Waxing Crescent
Jun 5
First Quarter
Jun 13
Full
Jun 19
Last Quarter
Jun 27
New

Hourly Weather History & Observations

Time (EDT) Temp. Heat Index Dew Point Humidity Pressure Visibility Wind Dir Wind Speed Gust Speed Precip Events Conditions
12:53 AM 75.0 °F - 68.0 °F 79% 30.03 in 10.0 mi NE 3.5 mph - N/A   Partly Cloudy
1:53 AM 73.0 °F - 68.0 °F 84% 30.02 in 10.0 mi Calm Calm - N/A   Partly Cloudy
2:53 AM 72.0 °F - 69.1 °F 91% 30.00 in 10.0 mi East 5.8 mph - N/A   Partly Cloudy
3:53 AM 72.0 °F - 69.1 °F 91% 30.00 in 10.0 mi Calm Calm - N/A   Partly Cloudy
4:53 AM 72.0 °F - 69.1 °F 91% 30.01 in 10.0 mi NE 3.5 mph - N/A   Scattered Clouds
5:53 AM 72.0 °F - 69.1 °F 91% 30.02 in 10.0 mi NNE 5.8 mph - N/A   Scattered Clouds
6:53 AM 72.0 °F - 69.1 °F 91% 30.03 in 10.0 mi East 3.5 mph - N/A   Mostly Cloudy
7:53 AM 75.0 °F - 70.0 °F 84% 30.04 in 10.0 mi East 3.5 mph - N/A   Mostly Cloudy
8:53 AM 79.0 °F - 71.1 °F 77% 30.04 in 10.0 mi SE 4.6 mph - N/A   Mostly Cloudy
9:53 AM 81.0 °F 84.4 °F 70.0 °F 69% 30.04 in 10.0 mi SSE 8.1 mph - N/A   Mostly Cloudy
10:53 AM 82.9 °F 87.0 °F 70.0 °F 65% 30.04 in 10.0 mi SE 5.8 mph - N/A   Mostly Cloudy
11:53 AM 86.0 °F 90.1 °F 69.1 °F 57% 30.04 in 10.0 mi SSE 6.9 mph - N/A   Mostly Cloudy
12:53 PM 88.0 °F 91.4 °F 68.0 °F 51% 30.03 in 10.0 mi Variable 4.6 mph - N/A   Mostly Cloudy
1:51 PM 87.8 °F 91.4 °F 68.0 °F 52% 30.02 in 10.0 mi Calm Calm - N/A Thunderstorm Thunderstorm
1:53 PM 88.0 °F 91.4 °F 68.0 °F 51% 30.02 in 10.0 mi Calm Calm - N/A Thunderstorm Thunderstorm
2:32 PM 86.0 °F 89.4 °F 68.0 °F 55% 30.02 in 10.0 mi East 17.3 mph 20.7 mph N/A   Overcast
2:47 PM 82.4 °F 84.6 °F 66.2 °F 58% 30.02 in 10.0 mi East 16.1 mph - N/A Thunderstorm Thunderstorm
2:53 PM 82.0 °F 84.1 °F 66.0 °F 58% 30.02 in 10.0 mi ESE 16.1 mph - N/A Thunderstorm Thunderstorm
3:11 PM 82.9 °F 87.0 °F 70.0 °F 65% 30.03 in 10.0 mi East 15.0 mph - 0.00 in Rain Light Rain
3:53 PM 84.0 °F 87.8 °F 69.1 °F 61% 30.01 in 10.0 mi SSE 21.9 mph 25.3 mph 0.00 in   Mostly Cloudy
4:53 PM 80.1 °F 82.7 °F 68.0 °F 67% 30.01 in 10.0 mi SSE 5.8 mph - N/A   Mostly Cloudy
5:53 PM 80.6 °F 83.9 °F 69.8 °F 70% 30.00 in 10.0 mi SE 8.1 mph - N/A   Overcast
6:53 PM 81.0 °F 84.1 °F 69.1 °F 67% 30.01 in 10.0 mi SE 8.1 mph - N/A   Overcast
7:53 PM 79.0 °F - 69.1 °F 72% 30.03 in 10.0 mi SE 4.6 mph - N/A   Overcast
8:53 PM 77.0 °F - 70.0 °F 79% 30.04 in 10.0 mi SE 3.5 mph - N/A   Overcast
9:53 PM 75.9 °F - 71.1 °F 85% 30.03 in 10.0 mi SSE 3.5 mph - N/A   Mostly Cloudy
10:53 PM 77.0 °F - 71.1 °F 82% 30.03 in 10.0 mi East 4.6 mph - N/A   Overcast
11:53 PM 75.0 °F - 71.1 °F 87% 30.05 in 10.0 mi South 4.6 mph - N/A   Overcast